Location: Walsall
(52.5862°N, 1.9829°W)
Time: 21:30:01
(UTC+01:00)

Tianhe-1 - Visible Passes

Search period start: 23 June 2021 00:00
Search period end: 03 July 2021 00:00
Orbit: 375 x 386 km, 41.5° (Epoch: 23 June)

Date Brightness Start Highest point End Pass type
(mag) Time Alt. Az. Time Alt. Az. Time Alt. Az.
25 Jun 3.4 03:34:55 10° S 03:35:04 10° S 03:35:14 10° SSE visible
27 Jun 3.3 03:09:25 11° S 03:09:25 11° S 03:10:18 10° SSE visible
28 Jun 3.2 03:43:30 10° SSW 03:44:22 11° S 03:45:14 10° S visible
